This demonstration page uses our WeatherBlox Daily Observations layout. Learn more.

Left ArrowRight Arrow

39.29038, -76.61219

Hourly Observations for February 11, 2019

Temp ( °F °C ) Dew Point ( °F °C ) Humidity (%) Winds ( mph kmh ) Pressure ( in mb ) Visibility ( mi km ) Precip ( " mm )
12:54 am 00:54 undefined 32 undefined 29 -1.7 88 88 undefined N/A 30.34 1027 N/A 0.05 1.27
1:54 am 01:54 undefined 32 undefined 29 -1.7 88 88 undefined N/A 30.32 1027 N/A 0.02 0.51
2:54 am 02:54 undefined 32 undefined 29 -1.7 88 88 undefined N/A 30.30 1026 N/A 0.02 0.51
3:54 am 03:54 undefined 32 undefined 29 -1.7 88 88 undefined N/A 30.28 1025 N/A 0.05 1.27
4:54 am 04:54 undefined 32 undefined 29 -1.7 88 88 undefined N/A 30.27 1025 N/A 0.07 1.78
5:54 am 05:54 undefined 32 undefined 29 -1.7 88 88 undefined N/A 30.26 1025 N/A 0.08 2.03
6:54 am 06:54 undefined 32 undefined 29 -1.7 88 88 undefined N/A 30.27 1025 N/A 0.04 1.02
7:54 am 07:54 undefined 32 undefined 29 -1.7 88 88 undefined N/A 30.28 1025 N/A 0.04 1.02
8:54 am 08:54 undefined 32 undefined 29 -1.7 88 88 undefined N/A 30.29 1026 N/A 0.03 0.76
9:54 am 09:54 undefined 33 0.6 29 -1.7 85 85 undefined N/A 30.29 1026 N/A 0.02 0.51
10:54 am 10:54 undefined 33 0.6 30 -1.1 89 89 undefined N/A 30.29 1026 N/A 0.03 0.76
11:54 am 11:54 undefined 33 0.6 30 -1.1 89 89 undefined N/A 30.29 1026 N/A 0.02 0.51
12:54 pm 12:54 undefined 33 0.6 30 -1.1 89 89 undefined N/A 30.27 1025 N/A 0.01 0.25
1:54 pm 13:54 undefined 34 1.1 30 -1.1 85 85 undefined N/A 30.26 1025 N/A 0.03 0.76
2:54 pm 14:54 undefined 34 1.1 30 -1.1 85 85 undefined N/A 30.25 1025 N/A 0.05 1.27
3:54 pm 15:54 undefined 33 0.6 30 -1.1 89 89 undefined N/A 30.26 1025 N/A 0.03 0.76
4:54 pm 16:54 undefined 33 0.6 29 -1.7 85 85 undefined N/A 30.26 1025 N/A 0.05 1.27
5:54 pm 17:54 undefined 33 0.6 30 -1.1 89 89 undefined N/A 30.28 1026 N/A 0.05 1.27
6:54 pm 18:54 undefined 33 0.6 30 -1.1 89 89 undefined N/A 30.30 1026 N/A 0.03 0.76
7:54 pm 19:54 undefined 34 1.1 30 -1.1 85 85 undefined N/A 30.32 1027 N/A 0.01 0.25
8:54 pm 20:54 undefined 33 0.6 31 -0.6 92 92 undefined N/A 30.34 1028 N/A 0.01 0.25
9:54 pm 21:54 undefined 33 0.6 30 -1.1 89 89 undefined N/A 30.32 1027 N/A 0.01 0.25
10:54 pm 22:54 undefined 33 0.6 30 -1.1 89 89 undefined N/A 30.33 1027 N/A 0.01 0.25
11:54 pm 23:54 undefined 33 0.6 30 -1.1 89 89 undefined N/A 30.32 1027 N/A N/A

Powered by AerisWeather